[[{"header":{"parameterUnit":"m.s-1","parameterCategory":2,"la1":30.2991,"la2":30.254,"lo1":-89.0895,"lo2":-89.0444,"dy":0.0017,"dx":0.0017,"nx":28,"ny":28,"refTime":"2025-06-08T09:00:00:Z","depth":"0","parameterNumber":2,"parameterNumberName":"U-component_of_CURRENTS"},"data":[0,0,0,0,0,0,0,0,0,0,0,0,0,0,0,0,0,0,0,0,0,0,0,0,0,0,0,0,0,0,0,0,0,0,0,0,0,0,0,0,0,0,0,0,0,0,0,0,0,0,0,0,0,0,0,0,0,0,0.3266,0.3267,0,0.3299,0.3299,0.3298,0.3246,0.3245,0.3243,0.3242,0.3264,0.3265,0.3267,0,0,0,0,0,0,0,0,0,0,0,0,0,0.3073,0.3076,0.3266,0.3267,0.3268,0.3299,0.3299,0.3298,0.3246,0.3244,0.3243,0.3242,0.3263,0.3265,0.3267,0,0,0,0,0,0,0,0,0,0,0,0,0,0.3129,0.3078,0.3266,0.3252,0.3252,0.3299,0.3299,0.3298,0.3246,0.3244,0.3243,0.3241,0.3263,0.3265,0.3267,0.3313,0,0,0.3274,0.3275,0,0,0,0,0,0,0,0,0.3126,0.3135,0.3253,0.3253,0.3253,0.3274,0.3239,0.3306,0.3246,0.3239,0.3242,0.3241,0.3273,0.3274,0.3272,0.3314,0.3315,0.3275,0.3276,0.3277,0.3278,0,0,0,0,0,0,0,0.3122,0.3133,0.3271,0.3254,0.3255,0.3216,0.3222,0.325,0.3258,0.324,0.3238,0.3256,0.3271,0.327,0.3272,0.3315,0.3275,0.3277,0.3278,0.3279,0.3513,0.3518,0,0,0,0,0,0,0.3142,0.313,0.327,0.3272,0.3194,0.3222,0.3228,0.3262,0.3258,0.3258,0.3257,0.3253,0.3267,0.327,0.3273,0.3444,0.3277,0.3279,0.3281,0.3508,0.3514,0.3519,0,0,0,0,0,0,0.3138,0.3155,0.3268,0.3207,0.322,0.3228,0.3266,0.3264,0.3268,0.3273,0.327,0.3265,0.3266,0.327,0.3326,0.344,0.328,0.3282,0.3503,0.351,0.3517,0.3712,0,0,0,0,0,0,0.3132,0.3153,0.3173,0.3209,0.3224,0.3342,0.3268,0.3266,0.3285,0.328,0.328,0.3279,0.3265,0.3323,0.3328,0.344,0.3284,0.3496,0.3506,0.3514,0.37,0.3725,0.3747,0,0,0,0,0,0.3126,0.3185,0.3174,0.319,0.3256,0.3346,0.3351,0.3343,0.3287,0.3329,0.3313,0.3279,0.3385,0.3328,0.3333,0.3449,0.3492,0.3503,0.3514,0.3689,0.372,0.3747,0,0,0,0,0,0,0.3128,0.3187,0.3175,0.3252,0.3309,0.3341,0.3375,0.3355,0.337,0.3354,0.3323,0.3326,0.3443,0.3407,0.3344,0.3546,0.3442,0.3454,0.3574,0.3603,0.3626,0.3688,0.3286,0,0,0,0,0,0.3136,0.3186,0.3244,0.3309,0.334,0.3349,0.3374,0.3378,0.3402,0.3403,0.3406,0.3421,0.3494,0.3508,0.3565,0.3642,0.3637,0.3727,0.3751,0.3771,0.3828,0.391,0.3947,0.3555,0.3555,0.3555,0,0,0.3153,0.3195,0.3221,0.331,0.334,0.3456,0.336,0.3429,0.3511,0.3408,0.3505,0.3518,0.354,0.3661,0.3707,0.3635,0.3875,0.3785,0.3802,0.3849,0.3926,0.3964,0.3998,0.3562,0.3561,0.356,0,0,0.3271,0.3258,0.3362,0.3424,0.35,0.352,0.3548,0.3598,0.3598,0.3681,0.3664,0.3741,0.3788,0.3864,0.3896,0.4081,0.402,0.4086,0.4233,0.4312,0.4345,0.4374,0.439,0.4419,0.4071,0.4071,0.4071,0,0.3291,0.3445,0.3409,0.3547,0.3617,0.3567,0.3718,0.3731,0.3789,0.3837,0.3742,0.3912,0.3911,0.4112,0.4171,0.4145,0.4139,0.4116,0.4344,0.4373,0.4399,0.4408,0.4438,0.4082,0.4081,0.4079,0.4078,0,0.3532,0.3635,0.3708,0.3859,0.3912,0.4036,0.4058,0.4105,0.407,0.4105,0.4251,0.4233,0.4334,0.4354,0.4309,0.4529,0.4447,0.4382,0.4268,0.445,0.4447,0.4475,0.4097,0.4093,0.409,0.4087,0,0,0.364,0.3842,0.3867,0.3958,0.4088,0.4146,0.4286,0.4422,0.448,0.4527,0.4638,0.4768,0.4724,0.4762,0.472,0.4772,0.4925,0.465,0.4649,0.4661,0.5056,0.4768,0.4767,0.488,0.4887,0.4892,0.4967,0,0.3858,0.4154,0.4187,0.4418,0.4567,0.4548,0.4648,0.4729,0.4741,0.4818,0.4853,0.4933,0.4883,0.4878,0.4962,0.492,0.501,0.4908,0.4884,0.4884,0.4602,0.4796,0.456,0.4588,0.4993,0.4997,0.5,0,0.4117,0.4268,0.4553,0.4672,0.4719,0.4812,0.4915,0.4994,0.5098,0.5094,0.5217,0.519,0.5331,0.5185,0.5318,0.5239,0.5212,0.5166,0.5165,0.486,0.4648,0.4479,0.4621,0.4606,0.5041,0.5037,0.5035,0,0.4237,0.45,0.4714,0.4784,0.4929,0.4987,0.5024,0.5111,0.5128,0.5263,0.5259,0.5444,0.5421,0.5501,0.54,0.5373,0.5456,0.5395,0.5152,0.5127,0.4909,0.4852,0.5035,0.5561,0.5561,0.5561,0.5561,0,0.4469,0.4615,0.4768,0.4875,0.5007,0.5056,0.5142,0.5197,0.5247,0.5271,0.5377,0.5387,0.5488,0.5504,0.5487,0.5367,0.5545,0.5242,0.5161,0.496,0.491,0.4863,0.4869,0.5563,0.5563,0.5562,0.5562,0,0.4561,0.4706,0.4903,0.5052,0.5073,0.5135,0.5139,0.5174,0.5224,0.5243,0.5274,0.5368,0.5351,0.5391,0.5444,0.5385,0.5185,0.5275,0.4987,0.487,0.4577,0.4598,0.4346,0.4252,0.5055,0.5049,0.5044,0,0.4656,0.4796,0.4963,0.5003,0.5054,0.5122,0.5129,0.5171,0.5167,0.519,0.5178,0.5197,0.5146,0.5106,0.5009,0.4949,0.4918,0.4728,0.4664,0.4582,0.4553,0.4301,0.4228,0.4461,0.4451,0.4443,0.4437,0,0.4782,0.4827,0.4946,0.501,0.5037,0.5042,0.5042,0.5029,0.5032,0.4978,0.4879,0.4847,0.4782,0.459,0.4514,0.447,0.4482,0.4555,0.4607,0.4234,0.3847,0.3705,0.4359,0.4367,0.4374,0.4379,0.4383,0.4386,0.4806,0.487,0.4961,0.4975,0.497,0.4866,0.4763,0.4729,0.4603,0.4398,0.4531,0.4317,0.4319,0.4119,0.4053,0.3867,0.3884,0.3828,0.3901,0.3682,0.3472,0.3914,0.372,0.3723,0.3726,0.3728,0.3731,0,0.4807,0.4837,0.4887,0.4822,0.4659,0.4704,0.4599,0.4405,0.4123,0.4044,0.3852,0.3697,0.3554,0.3567,0.3435,0.3324,0.3162,0.3305,0.3062,0.3066,0.3619,0.348,0.3057,0.3057,0.3057,0.3057,0.3057,0.3057,0.4804,0.4817,0.4805,0.4499,0.4381,0.4059,0.3929,0.3701,0.3565,0.3196,0.3017,0.3026,0.3221,0.3225,0.3134,0.3075,0.2953,0.2645,0.2792,0.339,0.345,0.3506,0.3385,0.2949,0.2949,0.2036,0.203,0.2026]},{"header":{"parameterUnit":"m.s-1","parameterCategory":2,"la1":30.2991,"la2":30.254,"lo1":-89.0895,"lo2":-89.0444,"dy":0.0017,"dx":0.0017,"nx":28,"ny":28,"refTime":"2025-06-08T09:00:00:Z","depth":"0","parameterNumber":3,"parameterNumberName":"V-component_of_CURRENTS"},"data":[0,0,0,0,0,0,0,0,0,0,0,0,0,0,0,0,0,0,0,0,0,0,0,0,0,0,0,0,0,0,0,0,0,0,0,0,0,0,0,0,0,0,0,0,0,0,0,0,0,0,0,0,0,0,0,0,0,0,0.042,0.042,0,0.0439,0.044,0.044,0.043,0.043,0.0429,0.0429,0.0442,0.0442,0.0443,0,0,0,0,0,0,0,0,0,0,0,0,0,0.0324,0.0326,0.042,0.042,0.042,0.0439,0.044,0.044,0.043,0.043,0.0429,0.0428,0.0441,0.0442,0.0443,0,0,0,0,0,0,0,0,0,0,0,0,0,0.0358,0.0327,0.042,0.0417,0.0417,0.0439,0.044,0.044,0.0431,0.043,0.0429,0.0428,0.0441,0.0442,0.0444,0.047,0,0,0.0448,0.0448,0,0,0,0,0,0,0,0,0.0356,0.0361,0.0417,0.0417,0.0417,0.0431,0.041,0.0449,0.0431,0.0427,0.0429,0.0427,0.0437,0.0439,0.0446,0.0471,0.0471,0.0448,0.0449,0.0449,0.045,0,0,0,0,0,0,0,0.0353,0.036,0.0429,0.0418,0.0417,0.0397,0.0401,0.0418,0.0437,0.0427,0.0426,0.0427,0.0437,0.0445,0.0446,0.0471,0.0448,0.0449,0.045,0.045,0.0546,0.0548,0,0,0,0,0,0,0.0353,0.0359,0.0428,0.0429,0.0382,0.04,0.0405,0.0428,0.0437,0.0438,0.0427,0.0426,0.0443,0.0445,0.0447,0.0514,0.0449,0.0451,0.0451,0.0544,0.0546,0.0548,0,0,0,0,0,0,0.0352,0.036,0.0427,0.0392,0.0399,0.0403,0.0429,0.0429,0.0436,0.0438,0.0438,0.0434,0.0442,0.0445,0.0469,0.0513,0.0451,0.0452,0.0542,0.0545,0.0547,0.0626,0,0,0,0,0,0,0.0349,0.036,0.0375,0.0393,0.0401,0.0461,0.0429,0.043,0.0438,0.0436,0.0444,0.0444,0.0442,0.0468,0.0471,0.0514,0.0453,0.054,0.0544,0.0547,0.0621,0.0631,0.0639,0,0,0,0,0,0.0346,0.0385,0.0377,0.0385,0.0423,0.0462,0.0466,0.0464,0.0439,0.0463,0.0456,0.0444,0.0491,0.047,0.0473,0.0518,0.0539,0.0543,0.0546,0.0617,0.0629,0.0639,0,0,0,0,0,0,0.0362,0.0388,0.0379,0.0426,0.0446,0.0461,0.0482,0.0468,0.0482,0.0476,0.0463,0.0464,0.0506,0.0498,0.0476,0.0555,0.0514,0.0519,0.0567,0.0578,0.0587,0.0646,0.0455,0,0,0,0,0,0.0369,0.0403,0.0419,0.046,0.047,0.0471,0.0482,0.0482,0.0493,0.0497,0.0495,0.0501,0.0527,0.0538,0.0557,0.0596,0.0588,0.0628,0.0637,0.0645,0.0696,0.0703,0.0718,0.0561,0.0561,0.0561,0,0,0.0385,0.0405,0.0423,0.0464,0.0478,0.0522,0.0478,0.051,0.0543,0.0498,0.054,0.0533,0.0544,0.0593,0.0611,0.059,0.0678,0.065,0.0656,0.0704,0.0709,0.0724,0.0737,0.0564,0.0563,0.0563,0,0,0.0458,0.0456,0.0515,0.0531,0.0557,0.0561,0.057,0.0584,0.0587,0.0623,0.0601,0.0629,0.0648,0.0679,0.0694,0.0766,0.0725,0.0753,0.0851,0.0856,0.0869,0.0881,0.0858,0.0867,0.0758,0.0758,0.0758,0,0.0473,0.0555,0.0538,0.0596,0.0626,0.0583,0.0655,0.0653,0.0668,0.0706,0.0651,0.0725,0.0708,0.0806,0.0818,0.0794,0.0768,0.0804,0.0868,0.088,0.0891,0.0865,0.0874,0.0762,0.0762,0.0761,0.0761,0,0.0605,0.0648,0.0685,0.0746,0.0771,0.0823,0.0817,0.0837,0.082,0.0837,0.091,0.0884,0.0948,0.0923,0.0888,0.097,0.0915,0.0874,0.0841,0.0911,0.0878,0.0887,0.0768,0.0767,0.0765,0.0764,0,0,0.0682,0.0766,0.0774,0.0817,0.0854,0.0889,0.0948,0.102,0.1095,0.1069,0.1179,0.1178,0.1167,0.1183,0.1136,0.1121,0.1134,0.1027,0.1025,0.1006,0.1118,0.1041,0.1041,0.1084,0.1087,0.1089,0.1052,0,0.0791,0.0934,0.0945,0.1051,0.1117,0.1099,0.117,0.1215,0.1249,0.133,0.1305,0.1378,0.1262,0.1291,0.1265,0.1181,0.1164,0.1147,0.1054,0.1053,0.0977,0.1053,0.1018,0.098,0.106,0.1061,0.1062,0,0.0922,0.0994,0.1143,0.1219,0.1249,0.1296,0.1419,0.1474,0.1566,0.1602,0.1666,0.1645,0.1657,0.1523,0.1439,0.1423,0.1299,0.1201,0.1196,0.1119,0.0993,0.0929,0.0991,0.0947,0.1074,0.1073,0.1072,0,0.1008,0.1119,0.1248,0.1273,0.1365,0.1419,0.146,0.157,0.1654,0.1776,0.1849,0.1875,0.1869,0.1748,0.1537,0.1494,0.1406,0.1327,0.1149,0.114,0.1099,0.1082,0.112,0.1286,0.1287,0.1287,0.1287,0,0.1128,0.1203,0.1285,0.1343,0.1473,0.15,0.166,0.1717,0.1848,0.1981,0.1979,0.2061,0.1915,0.1836,0.1635,0.1421,0.1488,0.1207,0.1148,0.1119,0.1105,0.1053,0.1,0.1285,0.1286,0.1286,0.1286,0,0.1195,0.1267,0.138,0.1481,0.1517,0.1595,0.1726,0.1866,0.1949,0.2118,0.2154,0.2201,0.2093,0.1915,0.1724,0.1542,0.1299,0.125,0.1211,0.1149,0.0941,0.0892,0.089,0.0865,0.1083,0.1081,0.1079,0,0.1253,0.133,0.1456,0.154,0.1578,0.1696,0.1818,0.1916,0.2054,0.2191,0.2276,0.2244,0.2235,0.1935,0.1617,0.1311,0.1232,0.1102,0.1031,0.097,0.0873,0.0874,0.0855,0.0988,0.0986,0.0984,0.0983,0,0.1326,0.1369,0.1464,0.1629,0.1748,0.1897,0.2033,0.2137,0.2271,0.2368,0.2463,0.2456,0.2181,0.1894,0.1498,0.1266,0.1081,0.1054,0.1024,0.0853,0.0831,0.0763,0.095,0.0967,0.0969,0.097,0.0971,0.0972,0.1362,0.1431,0.1566,0.171,0.1877,0.206,0.2151,0.2295,0.2443,0.2542,0.255,0.2514,0.2187,0.163,0.1333,0.089,0.0914,0.0776,0.0733,0.0752,0.0716,0.0859,0.0785,0.0786,0.0786,0.0786,0.0787,0,0.1384,0.1482,0.1644,0.182,0.2001,0.2074,0.2291,0.2367,0.2482,0.2577,0.2592,0.2435,0.1977,0.1559,0.0966,0.0672,0.0586,0.0545,0.0569,0.057,0.0726,0.0711,0.058,0.0581,0.0581,0.0581,0.0581,0.0581,0.1412,0.1537,0.1619,0.1879,0.2016,0.219,0.2292,0.2405,0.2491,0.2554,0.2552,0.2568,0.2417,0.1367,0.075,0.0558,0.0455,0.0346,0.0344,0.0461,0.0481,0.0501,0.048,0.0303,0.0303,0.0239,0.0237,0.0236]}],[{"header":{"parameterUnit":"m.s-1","parameterCategory":2,"la1":30.2991,"la2":30.254,"lo1":-89.0895,"lo2":-89.0444,"dy":0.0017,"dx":0.0017,"nx":28,"ny":28,"refTime":"2025-06-08T09:00:00:Z","depth":"2","parameterNumber":2,"parameterNumberName":"U-component_of_CURRENTS"},"data":[0,0,0,0,0,0,0,0,0,0,0,0,0,0,0,0,0,0,0,0,0,0,0,0,0,0,0,0,0,0,0,0,0,0,0,0,0,0,0,0,0,0,0,0,0,0,0,0,0,0,0,0,0,0,0,0,0,0,0.303,0.3031,0,0.3068,0.3068,0.3068,0.3051,0.305,0.305,0.305,0.309,0.3091,0.3092,0,0,0,0,0,0,0,0,0,0,0,0,0,0.2891,0.2894,0.303,0.3031,0.3032,0.3068,0.3068,0.3068,0.3051,0.305,0.305,0.305,0.3089,0.3091,0.3092,0,0,0,0,0,0,0,0,0,0,0,0,0,0.2935,0.2894,0.303,0.3034,0.3036,0.3068,0.3068,0.3068,0.3051,0.305,0.305,0.305,0.3089,0.3091,0.3093,0.3109,0,0,0.3098,0.3099,0,0,0,0,0,0,0,0,0.2932,0.2939,0.3032,0.3034,0.3036,0.3062,0.3034,0.3085,0.3051,0.3036,0.305,0.305,0.3087,0.3089,0.3084,0.3111,0.3112,0.3098,0.3099,0.31,0.3101,0,0,0,0,0,0,0,0.2929,0.2937,0.3036,0.3034,0.3036,0.3018,0.3024,0.3043,0.3055,0.3037,0.3038,0.3056,0.3086,0.3082,0.3085,0.3113,0.3098,0.31,0.3101,0.3102,0.3263,0.3267,0,0,0,0,0,0,0.2946,0.2935,0.3035,0.3038,0.2992,0.3022,0.3027,0.3047,0.3055,0.3059,0.3057,0.3056,0.3079,0.3083,0.3086,0.3259,0.31,0.3102,0.3103,0.326,0.3264,0.3268,0,0,0,0,0,0,0.2942,0.2954,0.3034,0.2994,0.3004,0.3026,0.3047,0.3048,0.3065,0.3072,0.3073,0.3076,0.3079,0.3084,0.3143,0.3255,0.3103,0.3104,0.3257,0.3261,0.3266,0.3507,0,0,0,0,0,0,0.2938,0.2953,0.2976,0.2995,0.3007,0.3091,0.3048,0.3049,0.3079,0.3078,0.3089,0.309,0.3079,0.3141,0.3145,0.3255,0.3106,0.3252,0.3259,0.3264,0.3495,0.352,0.3541,0,0,0,0,0,0.2933,0.2987,0.2977,0.299,0.3037,0.3094,0.3099,0.3106,0.3081,0.3113,0.3119,0.3091,0.3182,0.3145,0.3149,0.3262,0.325,0.3257,0.3264,0.3485,0.3515,0.354,0,0,0,0,0,0,0.2946,0.2992,0.298,0.3046,0.3079,0.3096,0.3131,0.3122,0.3147,0.3146,0.3129,0.3134,0.3217,0.3198,0.3157,0.3321,0.3213,0.3221,0.3379,0.3407,0.343,0.3424,0.3107,0,0,0,0,0,0.2958,0.3005,0.3038,0.3089,0.311,0.3115,0.3138,0.3143,0.3168,0.3176,0.3197,0.3214,0.3247,0.3293,0.3298,0.3402,0.3376,0.3473,0.3496,0.3516,0.3512,0.3604,0.3636,0.3291,0.3291,0.3291,0,0,0.2972,0.3009,0.3032,0.3095,0.3112,0.315,0.3128,0.3182,0.3236,0.318,0.3273,0.3278,0.3278,0.3386,0.3427,0.3398,0.3598,0.3525,0.3543,0.3527,0.3616,0.3649,0.368,0.3296,0.3295,0.3295,0,0,0.3037,0.3062,0.3119,0.3167,0.3222,0.3203,0.3225,0.3269,0.3319,0.3382,0.3376,0.3451,0.3485,0.3554,0.3574,0.3722,0.3687,0.3738,0.3897,0.399,0.402,0.4045,0.4051,0.4075,0.3788,0.3789,0.3789,0,0.3061,0.3133,0.3146,0.3227,0.3296,0.3229,0.332,0.3334,0.3401,0.3497,0.3431,0.3564,0.3559,0.3742,0.3793,0.378,0.3796,0.3804,0.4024,0.4049,0.4071,0.407,0.4094,0.3801,0.38,0.3799,0.3798,0,0.3137,0.3233,0.3282,0.3339,0.3407,0.3474,0.3513,0.353,0.3536,0.3622,0.3793,0.3798,0.3909,0.3924,0.3892,0.4102,0.4047,0.4018,0.3963,0.4121,0.4109,0.4129,0.3819,0.3815,0.3811,0.3808,0,0,0.316,0.3301,0.3331,0.341,0.3497,0.3547,0.3615,0.3725,0.3758,0.3877,0.4049,0.4135,0.4209,0.4233,0.4262,0.4327,0.4483,0.4263,0.4262,0.4281,0.4654,0.4333,0.4322,0.4527,0.4532,0.4536,0.458,0,0.3232,0.3346,0.3461,0.3611,0.3674,0.3719,0.3764,0.3867,0.3918,0.4042,0.4201,0.4308,0.4325,0.4352,0.4488,0.4441,0.455,0.4469,0.4483,0.4481,0.419,0.434,0.4055,0.4047,0.4599,0.4602,0.4605,0,0.333,0.3371,0.352,0.3712,0.3755,0.3844,0.3911,0.3982,0.414,0.4188,0.4422,0.4506,0.4716,0.4622,0.4795,0.4757,0.4756,0.4698,0.47,0.4322,0.4198,0.3977,0.4062,0.4637,0.4635,0.4632,0.463,0,0.3276,0.3498,0.3597,0.3668,0.3784,0.391,0.3973,0.4076,0.4181,0.433,0.4384,0.4668,0.4773,0.4857,0.4852,0.4832,0.4943,0.4901,0.4631,0.4606,0.4313,0.4251,0.5034,0.5034,0.5034,0.5034,0.5033,0,0.333,0.3447,0.3586,0.3625,0.3735,0.3919,0.4096,0.4062,0.4256,0.437,0.4545,0.4625,0.4831,0.4952,0.493,0.4845,0.5059,0.4659,0.4614,0.438,0.4326,0.4787,0.4758,0.5035,0.5035,0.5034,0.5034,0,0.331,0.3377,0.35,0.3647,0.3725,0.3816,0.4157,0.4217,0.4325,0.4459,0.4513,0.4707,0.4714,0.4856,0.491,0.4878,0.4799,0.473,0.4387,0.4296,0.4376,0.436,0.4403,0.4393,0.4384,0.4376,0.437,0,0.332,0.336,0.3475,0.3547,0.3672,0.3895,0.398,0.4172,0.4269,0.4438,0.4464,0.4586,0.4544,0.4554,0.4493,0.4399,0.458,0.405,0.3924,0.4369,0.4323,0.432,0.4315,0.3658,0.3646,0.3637,0.3629,0,0.333,0.3356,0.3382,0.3447,0.3595,0.3785,0.3993,0.4036,0.4187,0.4237,0.4212,0.4196,0.4198,0.396,0.3887,0.3803,0.4018,0.3835,0.4494,0.3805,0.3654,0.3611,0.3635,0.3545,0.3553,0.3559,0.3564,0.3567,0.3344,0.332,0.3317,0.3423,0.3512,0.3601,0.3665,0.3807,0.3831,0.376,0.388,0.3683,0.3687,0.3335,0.3208,0.315,0.3397,0.3257,0.3294,0.334,0.3189,0.3025,0.2768,0.2771,0.2775,0.2778,0.278,0,0.3331,0.3314,0.3353,0.3357,0.3365,0.3512,0.3581,0.3525,0.3389,0.3351,0.3275,0.2887,0.2688,0.2697,0.2469,0.2394,0.2483,0.2279,0.242,0.2503,0.2577,0.2396,0.176,0.1757,0.1754,0.1751,0,0,0.3311,0.3276,0.3255,0.3221,0.3256,0.3165,0.3144,0.297,0.2883,0.2621,0.2496,0.2577,0.2599,0.216,0.2089,0.189,0.2193,0.1806,0.2633,0.2886,0.2957,0.3147,0.2957,0,0,0,0,0]},{"header":{"parameterUnit":"m.s-1","parameterCategory":2,"la1":30.2991,"la2":30.254,"lo1":-89.0895,"lo2":-89.0444,"dy":0.0017,"dx":0.0017,"nx":28,"ny":28,"refTime":"2025-06-08T09:00:00:Z","depth":"2","parameterNumber":3,"parameterNumberName":"V-component_of_CURRENTS"},"data":[0,0,0,0,0,0,0,0,0,0,0,0,0,0,0,0,0,0,0,0,0,0,0,0,0,0,0,0,0,0,0,0,0,0,0,0,0,0,0,0,0,0,0,0,0,0,0,0,0,0,0,0,0,0,0,0,0,0,0.0269,0.0269,0,0.0286,0.0286,0.0286,0.0291,0.0291,0.029,0.029,0.0311,0.0312,0.0312,0,0,0,0,0,0,0,0,0,0,0,0,0,0.0202,0.0204,0.0269,0.0269,0.0269,0.0286,0.0286,0.0286,0.0291,0.0291,0.029,0.029,0.0311,0.0312,0.0312,0,0,0,0,0,0,0,0,0,0,0,0,0,0.0227,0.0204,0.0269,0.0273,0.0274,0.0286,0.0286,0.0286,0.0291,0.0291,0.029,0.029,0.0311,0.0312,0.0313,0.0322,0,0,0.0315,0.0316,0,0,0,0,0,0,0,0,0.0225,0.0229,0.0272,0.0273,0.0274,0.0286,0.027,0.0298,0.0291,0.0284,0.029,0.029,0.0303,0.0305,0.0308,0.0323,0.0323,0.0316,0.0316,0.0317,0.0317,0,0,0,0,0,0,0,0.0224,0.0228,0.0275,0.0273,0.0273,0.0262,0.0265,0.0275,0.0294,0.0285,0.0285,0.0287,0.0303,0.0307,0.0309,0.0324,0.0316,0.0316,0.0317,0.0317,0.0366,0.0367,0,0,0,0,0,0,0.0224,0.0227,0.0275,0.0276,0.0249,0.0263,0.0267,0.0282,0.0294,0.0296,0.0287,0.0287,0.0306,0.0308,0.0309,0.0366,0.0317,0.0317,0.0318,0.0366,0.0367,0.0367,0,0,0,0,0,0,0.0223,0.0229,0.0274,0.0251,0.0256,0.0265,0.0281,0.0283,0.0293,0.0296,0.0298,0.0297,0.0306,0.0308,0.0331,0.0365,0.0318,0.0319,0.0365,0.0366,0.0367,0.045,0,0,0,0,0,0,0.0221,0.0228,0.0243,0.0251,0.0257,0.0298,0.0281,0.0283,0.0294,0.0295,0.0305,0.0306,0.0306,0.033,0.0332,0.0366,0.032,0.0364,0.0365,0.0367,0.0447,0.0454,0.0461,0,0,0,0,0,0.0219,0.0252,0.0244,0.025,0.0277,0.0299,0.0302,0.0306,0.0295,0.0312,0.0315,0.0307,0.034,0.0332,0.0334,0.0369,0.0363,0.0365,0.0367,0.0444,0.0453,0.0461,0,0,0,0,0,0,0.0237,0.0256,0.0247,0.0285,0.0294,0.0301,0.032,0.0312,0.0326,0.0326,0.032,0.0323,0.0341,0.0344,0.0335,0.0383,0.0348,0.0351,0.0406,0.0415,0.0422,0.0448,0.032,0,0,0,0,0,0.0245,0.0275,0.0279,0.0311,0.0316,0.0314,0.0323,0.0322,0.0332,0.0338,0.0345,0.0349,0.0349,0.0374,0.0365,0.0412,0.0396,0.0431,0.0438,0.0445,0.0466,0.0478,0.0489,0.0373,0.0373,0.0373,0,0,0.0259,0.0275,0.0291,0.0316,0.0323,0.0335,0.0321,0.0343,0.0356,0.0338,0.037,0.0361,0.0356,0.0392,0.0404,0.0408,0.0462,0.0447,0.0452,0.047,0.0481,0.0493,0.0503,0.0374,0.0374,0.0373,0,0,0.0303,0.0317,0.035,0.0364,0.0378,0.0365,0.0371,0.0381,0.0393,0.0406,0.0396,0.0419,0.0419,0.045,0.0454,0.0498,0.0474,0.049,0.0584,0.0596,0.0606,0.0615,0.0582,0.0587,0.0525,0.0525,0.0525,0,0.0318,0.0351,0.0362,0.0397,0.0412,0.0378,0.0406,0.0408,0.0425,0.047,0.042,0.0466,0.0446,0.0531,0.0535,0.0518,0.0505,0.0556,0.0607,0.0616,0.0624,0.0588,0.0593,0.0529,0.0529,0.0529,0.0528,0,0.0368,0.0401,0.0426,0.0446,0.047,0.0486,0.0488,0.0507,0.0489,0.0515,0.0577,0.0558,0.0623,0.0593,0.0568,0.0644,0.0606,0.059,0.0592,0.0641,0.0599,0.0603,0.0536,0.0534,0.0533,0.0532,0,0,0.0395,0.0443,0.0455,0.048,0.0495,0.0522,0.0551,0.0596,0.0661,0.0652,0.0767,0.0731,0.0777,0.0785,0.0782,0.0772,0.0779,0.0717,0.0715,0.0694,0.0781,0.0678,0.0672,0.0781,0.0783,0.0784,0.0719,0,0.0422,0.0459,0.0504,0.0559,0.0569,0.0597,0.0646,0.07,0.0728,0.0834,0.085,0.0916,0.0841,0.0882,0.0884,0.0808,0.0798,0.0796,0.0729,0.0726,0.0638,0.0677,0.0681,0.0618,0.0723,0.0723,0.0724,0,0.0459,0.047,0.0508,0.0611,0.0633,0.0683,0.0783,0.0835,0.097,0.1013,0.112,0.1142,0.1191,0.1084,0.1026,0.1034,0.0928,0.0827,0.0824,0.0709,0.0632,0.059,0.0621,0.0729,0.0729,0.0728,0.0728,0,0.0425,0.0506,0.0525,0.055,0.0636,0.0714,0.0778,0.0904,0.1037,0.1154,0.1261,0.1319,0.1375,0.1259,0.1107,0.1066,0.1,0.0927,0.0731,0.0721,0.0702,0.0687,0.087,0.087,0.0871,0.0871,0.0871,0,0.0427,0.0466,0.0521,0.0536,0.0638,0.0729,0.0923,0.0966,0.1194,0.1383,0.1394,0.1518,0.1415,0.1393,0.1196,0.1001,0.1092,0.0752,0.0712,0.0723,0.0712,0.0795,0.0787,0.0868,0.0869,0.0869,0.087,0,0.0421,0.0418,0.0484,0.0581,0.0623,0.0719,0.1025,0.12,0.1327,0.1575,0.1624,0.1719,0.161,0.1485,0.1291,0.1123,0.0911,0.0817,0.0814,0.0772,0.0584,0.0582,0.0562,0.0558,0.0555,0.0553,0.055,0,0.0417,0.0428,0.0521,0.06,0.0669,0.0853,0.1018,0.1221,0.1446,0.1671,0.1808,0.1799,0.1771,0.1484,0.1203,0.0879,0.086,0.0646,0.0545,0.0598,0.0561,0.0563,0.0564,0.0541,0.0539,0.0537,0.0536,0,0.0447,0.0481,0.0541,0.068,0.0838,0.1069,0.1323,0.1495,0.1746,0.1894,0.2023,0.198,0.1729,0.1414,0.1027,0.0798,0.069,0.059,0.0717,0.0603,0.0569,0.0534,0.0539,0.052,0.0522,0.0523,0.0524,0.0524,0.051,0.0565,0.066,0.0827,0.103,0.1298,0.1463,0.1724,0.1977,0.2155,0.2121,0.2003,0.1703,0.114,0.0824,0.0526,0.0531,0.0367,0.0378,0.0389,0.0383,0.0344,0.0249,0.0249,0.0249,0.0249,0.0249,0,0.0591,0.0665,0.0827,0.1033,0.1317,0.139,0.1701,0.1839,0.2043,0.2121,0.2146,0.1759,0.1413,0.1073,0.061,0.0293,0.0308,0.0174,0.0276,0.0292,0.0307,0.0302,0.0144,0.0142,0.0141,0.014,0,0,0.0633,0.0765,0.0856,0.1266,0.1459,0.1725,0.187,0.1976,0.2059,0.2058,0.198,0.1871,0.1453,0.1079,0.0703,0.0431,0.0423,0.036,0.0475,0.0657,0.0675,0.0446,0.0458,0,0,0,0,0]}],[{"header":{"parameterUnit":"m.s-1","parameterCategory":2,"la1":30.2991,"la2":30.254,"lo1":-89.0895,"lo2":-89.0444,"dy":0.0017,"dx":0.0017,"nx":28,"ny":28,"refTime":"2025-06-08T09:00:00:Z","depth":"4","parameterNumber":2,"parameterNumberName":"U-component_of_CURRENTS"},"data":[0,0,0,0,0,0,0,0,0,0,0,0,0,0,0,0,0,0,0,0,0,0,0,0,0,0,0,0,0,0,0,0,0,0,0,0,0,0,0,0,0,0,0,0,0,0,0,0,0,0,0,0,0,0,0,0,0,0,0.1372,0.1372,0,0.1422,0.1423,0.1424,0.1453,0.1453,0.1453,0.1453,0.1571,0.1574,0.1577,0,0,0,0,0,0,0,0,0,0,0,0,0,0.1301,0.1302,0.1372,0.1372,0.1373,0.1422,0.1423,0.1424,0.1453,0.1453,0.1453,0.1453,0.157,0.1573,0.1577,0,0,0,0,0,0,0,0,0,0,0,0,0,0.134,0.1302,0.1371,0.1393,0.1396,0.1422,0.1423,0.1424,0.1453,0.1453,0.1453,0.1453,0.1568,0.1573,0.1577,0.1603,0,0,0.1591,0.1593,0,0,0,0,0,0,0,0,0.1337,0.1342,0.1389,0.1392,0.1394,0.1431,0.1441,0.1487,0.1453,0.1431,0.1453,0.1453,0.153,0.1538,0.1546,0.1608,0.1613,0.1592,0.1595,0.1596,0.1598,0,0,0,0,0,0,0,0.1335,0.134,0.1392,0.139,0.1393,0.1401,0.1406,0.145,0.1481,0.1433,0.1436,0.1441,0.1532,0.1542,0.155,0.1615,0.1592,0.1596,0.1598,0.16,0.1762,0.1764,0,0,0,0,0,0,0.1328,0.1338,0.139,0.1393,0.1365,0.1402,0.1408,0.142,0.1479,0.1487,0.1441,0.1442,0.1534,0.1544,0.1554,0.1653,0.1596,0.1601,0.1603,0.1761,0.1762,0.1764,0,0,0,0,0,0,0.1326,0.1332,0.1388,0.1366,0.1374,0.1403,0.1415,0.142,0.1476,0.1484,0.1494,0.1495,0.1534,0.1547,0.1612,0.1655,0.1603,0.1607,0.1759,0.1761,0.1763,0.181,0,0,0,0,0,0,0.1324,0.1332,0.1361,0.1366,0.1375,0.1431,0.1415,0.1421,0.1475,0.1479,0.1534,0.1541,0.1536,0.1605,0.1617,0.1661,0.161,0.1757,0.176,0.1763,0.1806,0.1813,0.1819,0,0,0,0,0,0.1322,0.1346,0.1363,0.137,0.1407,0.1432,0.1439,0.1459,0.1479,0.1509,0.1536,0.1542,0.1632,0.161,0.1623,0.167,0.1755,0.1759,0.1762,0.1803,0.1812,0.1819,0,0,0,0,0,0,0.134,0.1351,0.1369,0.1401,0.1432,0.1438,0.1467,0.1492,0.1539,0.1552,0.1566,0.1576,0.1651,0.1655,0.1632,0.1723,0.1694,0.1701,0.1721,0.173,0.1736,0.1777,0.1614,0,0,0,0,0,0.1356,0.1369,0.1395,0.1423,0.1443,0.1472,0.1495,0.1513,0.1541,0.1565,0.1602,0.1637,0.1669,0.1696,0.1727,0.1784,0.1804,0.1821,0.1828,0.1833,0.1875,0.1977,0.1998,0.1776,0.1776,0.1776,0,0,0.1368,0.1378,0.1388,0.1427,0.1451,0.1469,0.1487,0.1532,0.1551,0.1571,0.1632,0.1676,0.1692,0.1744,0.1778,0.1758,0.1885,0.1838,0.1842,0.1882,0.1983,0.2005,0.2025,0.1778,0.1778,0.1777,0,0,0.135,0.1415,0.14,0.1428,0.1468,0.1503,0.153,0.1576,0.1607,0.1671,0.1682,0.1761,0.1812,0.1832,0.1844,0.1915,0.1924,0.1924,0.1989,0.2087,0.2107,0.2125,0.2085,0.21,0.1919,0.1919,0.1919,0,0.1366,0.134,0.1408,0.1398,0.1391,0.1522,0.1492,0.1574,0.1637,0.1661,0.1699,0.1833,0.1854,0.1919,0.194,0.1935,0.1955,0.1951,0.2098,0.2117,0.2135,0.2091,0.2107,0.1922,0.1921,0.1921,0.1921,0,0.1316,0.1307,0.131,0.1332,0.136,0.1372,0.146,0.158,0.1662,0.1691,0.1818,0.1898,0.1975,0.1997,0.1995,0.2125,0.2079,0.21,0.208,0.2161,0.2107,0.2122,0.1926,0.1925,0.1924,0.1923,0,0,0.128,0.1266,0.1264,0.1249,0.1305,0.134,0.1437,0.1516,0.1633,0.175,0.1828,0.1947,0.2038,0.2064,0.2113,0.222,0.2325,0.2229,0.2233,0.2191,0.2465,0.2242,0.2236,0.2395,0.24,0.2404,0.2341,0,0.1199,0.1132,0.1141,0.1126,0.1099,0.1244,0.1336,0.1455,0.1593,0.1744,0.1869,0.1993,0.2042,0.2145,0.2247,0.2329,0.2386,0.2335,0.2394,0.2393,0.2191,0.2256,0.2421,0.2353,0.2356,0.2359,0.2361,0,0.1111,0.107,0.0985,0.1019,0.1033,0.1095,0.13,0.1401,0.1638,0.1757,0.1927,0.2027,0.2195,0.226,0.2445,0.2419,0.2452,0.2512,0.251,0.2318,0.2205,0.228,0.2389,0.2386,0.2384,0.2382,0.2381,0,0.1012,0.0968,0.0893,0.0892,0.098,0.1047,0.1171,0.1398,0.1534,0.1807,0.1962,0.2117,0.2271,0.2392,0.2476,0.25,0.264,0.2659,0.2465,0.2443,0.264,0.2623,0.2794,0.2794,0.2794,0.2794,0.2794,0,0.0891,0.085,0.088,0.0858,0.0896,0.0993,0.1143,0.1352,0.162,0.1785,0.1986,0.2165,0.2349,0.2423,0.2476,0.2478,0.262,0.2492,0.245,0.2641,0.2626,0.2643,0.2627,0.2791,0.2792,0.2792,0.2793,0,0.0788,0.078,0.0738,0.0808,0.0838,0.091,0.1135,0.1322,0.1604,0.1853,0.1958,0.2215,0.2355,0.2418,0.2555,0.2466,0.2495,0.2444,0.2541,0.2502,0.2219,0.2206,0.225,0.2242,0.2236,0.223,0.2226,0,0.072,0.067,0.0703,0.0734,0.077,0.0889,0.1027,0.1299,0.1488,0.188,0.1993,0.2194,0.2327,0.2298,0.2374,0.235,0.2352,0.2263,0.2364,0.2227,0.2182,0.2179,0.2174,0.2216,0.2214,0.2212,0.2211,0,0.0598,0.0633,0.0634,0.0689,0.0789,0.0875,0.1071,0.1186,0.1546,0.178,0.2022,0.2095,0.2187,0.2213,0.2159,0.2169,0.2281,0.2198,0.2214,0.2309,0.2187,0.2147,0.215,0.2189,0.2192,0.2194,0.2195,0,0.0568,0.0551,0.0598,0.0667,0.0785,0.0888,0.0953,0.118,0.1369,0.1803,0.1828,0.2052,0.2187,0.2115,0.2088,0.204,0.2064,0.199,0.2018,0.2043,0.2002,0.1819,0.1689,0,0,0,0,0,0.0544,0.0535,0.0586,0.0671,0.0817,0.0879,0.1039,0.1138,0.1413,0.1561,0.1716,0.1818,0.187,0.1924,0.1842,0.195,0.2016,0.1835,0.1932,0.2066,0.2091,0.2061,0,0,0,0,0,0,0.0534,0.054,0.0563,0.0709,0.0798,0.0933,0.1024,0.1169,0.124,0.1506,0.1536,0.1707,0.1753,0.1946,0.1832,0.1836,0.1847,0.1931,0.1924,0.2051,0.2075,0.2095,0.2073,0,0,0,0,0]},{"header":{"parameterUnit":"m.s-1","parameterCategory":2,"la1":30.2991,"la2":30.254,"lo1":-89.0895,"lo2":-89.0444,"dy":0.0017,"dx":0.0017,"nx":28,"ny":28,"refTime":"2025-06-08T09:00:00:Z","depth":"4","parameterNumber":3,"parameterNumberName":"V-component_of_CURRENTS"},"data":[0,0,0,0,0,0,0,0,0,0,0,0,0,0,0,0,0,0,0,0,0,0,0,0,0,0,0,0,0,0,0,0,0,0,0,0,0,0,0,0,0,0,0,0,0,0,0,0,0,0,0,0,0,0,0,0,0,0,-0.0027,-0.0027,0,-0.003,-0.003,-0.003,-0.0038,-0.0038,-0.0038,-0.0038,-0.0046,-0.0046,-0.0046,0,0,0,0,0,0,0,0,0,0,0,0,0,-0.0029,-0.0029,-0.0027,-0.0027,-0.0027,-0.003,-0.003,-0.003,-0.0038,-0.0038,-0.0038,-0.0039,-0.0046,-0.0046,-0.0046,0,0,0,0,0,0,0,0,0,0,0,0,0,-0.0029,-0.0029,-0.0027,-0.0032,-0.0033,-0.003,-0.003,-0.003,-0.0038,-0.0038,-0.0038,-0.0039,-0.0046,-0.0046,-0.0045,-0.0037,0,0,-0.0045,-0.0045,0,0,0,0,0,0,0,0,-0.0029,-0.0028,-0.0031,-0.0032,-0.0033,-0.0035,-0.0034,-0.0033,-0.0037,-0.0035,-0.0038,-0.0039,-0.0043,-0.0043,-0.0041,-0.0037,-0.0038,-0.0045,-0.0045,-0.0045,-0.0045,0,0,0,0,0,0,0,-0.0029,-0.0028,-0.0027,-0.0032,-0.0032,-0.0035,-0.0035,-0.0033,-0.0036,-0.0035,-0.0036,-0.0038,-0.0043,-0.0041,-0.0041,-0.0038,-0.0045,-0.0045,-0.0045,-0.0045,-0.0032,-0.0032,0,0,0,0,0,0,-0.003,-0.0028,-0.0027,-0.0027,-0.0033,-0.0035,-0.0035,-0.0033,-0.0036,-0.0037,-0.0037,-0.0038,-0.0041,-0.0041,-0.0042,-0.0023,-0.0045,-0.0045,-0.0045,-0.0033,-0.0032,-0.0032,0,0,0,0,0,0,-0.003,-0.003,-0.0027,-0.0029,-0.0029,-0.0034,-0.0032,-0.0033,-0.0031,-0.0038,-0.0039,-0.0035,-0.0041,-0.0042,-0.0038,-0.0024,-0.0045,-0.0045,-0.0033,-0.0033,-0.0032,0.0008,0,0,0,0,0,0,-0.003,-0.0029,-0.0029,-0.0029,-0.0029,-0.0011,-0.0032,-0.0033,-0.0032,-0.0033,-0.0036,-0.0037,-0.0042,-0.0038,-0.0038,-0.0024,-0.0045,-0.0033,-0.0033,-0.0032,0.0006,0.0009,0.0012,0,0,0,0,0,-0.003,-0.0016,-0.0029,-0.0029,-0.0028,-0.001,-0.0009,-0.0014,-0.0032,-0.0017,-0.0031,-0.0037,-0.0035,-0.0038,-0.0038,-0.0024,-0.0034,-0.0033,-0.0032,0.0005,0.0009,0.0012,0,0,0,0,0,0,-0.0016,-0.0016,-0.0029,-0.0018,-0.0012,-0.0011,-0.0002,-0.0013,-0.0012,-0.0017,-0.0031,-0.0032,-0.0026,-0.0031,-0.0035,-0.002,-0.0036,-0.0035,-0.0008,-0.0004,-0.0001,0.0002,-0.0045,0,0,0,0,0,-0.0014,-0.0004,-0.0007,0.0003,0.0005,-0.0002,0.0001,-0.0001,-0.0003,-0.0003,-0.0008,-0.0018,-0.0023,-0.0019,-0.0023,-0.001,-0.0037,-0.0002,0.0001,0.0004,0.0005,-0.0015,-0.0014,-0.003,-0.003,-0.003,0,0,-0.0008,-0.0006,-0.0002,0.0007,0.0007,0.0025,0.0,0.0013,0.0027,-0.0004,0.0012,-0.0007,-0.0019,-0.0008,-0.0005,-0.0009,-0.0011,0.0004,0.0007,0.0007,-0.0015,-0.0013,-0.0012,-0.0029,-0.0029,-0.003,0,0,0.0025,0.0014,0.0036,0.0045,0.0051,0.0047,0.0051,0.0053,0.0053,0.0067,0.0037,0.0024,0.0033,0.0019,0.0014,0.0032,0.0002,0.0032,0.0059,0.0039,0.004,0.0041,-0.0012,-0.0016,0.004,0.004,0.004,0,0.0032,0.0059,0.0047,0.0074,0.0087,0.0059,0.009,0.0087,0.009,0.0081,0.0082,0.0053,0.0047,0.0035,0.0046,0.0041,0.0012,0.0047,0.0044,0.0044,0.0044,-0.0011,-0.0016,0.0042,0.0042,0.0042,0.0041,0,0.0084,0.0105,0.0122,0.0142,0.0154,0.0179,0.0171,0.0177,0.0166,0.0144,0.0131,0.0113,0.0093,0.009,0.008,0.0072,0.0043,0.0046,0.0035,0.0048,-0.0011,-0.0017,0.0045,0.0044,0.0044,0.0043,0,0,0.0107,0.015,0.0156,0.0185,0.0195,0.0217,0.0231,0.0231,0.0231,0.021,0.0195,0.0185,0.0143,0.0134,0.0106,0.0094,0.0069,0.0078,0.0076,0.0026,-0.0001,0.0011,0.0005,0.0074,0.0074,0.0074,-0.005,0,0.0153,0.0224,0.0228,0.029,0.0325,0.0311,0.0331,0.0319,0.0297,0.0269,0.0209,0.0195,0.0167,0.0166,0.0137,0.0093,0.0058,0.01,-0.0007,-0.0011,0.0,0.0001,0.0073,-0.0055,-0.0056,-0.0057,-0.0058,0,0.0204,0.0248,0.0324,0.0376,0.0388,0.0423,0.0442,0.0455,0.039,0.0367,0.0306,0.0244,0.0197,0.0185,0.0095,0.0124,0.0062,0.0022,0.0016,0.0013,-0.0009,-0.0066,-0.007,-0.0069,-0.0068,-0.0067,-0.0067,0,0.0242,0.0313,0.0381,0.0402,0.0451,0.049,0.0513,0.0487,0.0498,0.0427,0.0416,0.0308,0.0286,0.0196,0.0095,0.0105,-0.0019,-0.0016,-0.0082,-0.0084,-0.0077,-0.0076,-0.0089,-0.0089,-0.0089,-0.0089,-0.0088,0,0.0294,0.0346,0.0417,0.0459,0.0532,0.0555,0.0614,0.0603,0.0587,0.0588,0.0477,0.0448,0.0299,0.0195,0.0091,-0.002,-0.0026,-0.0084,-0.0106,-0.0062,-0.0057,-0.0084,-0.0081,-0.0093,-0.0092,-0.0091,-0.0091,0,0.0324,0.0367,0.0451,0.0532,0.0557,0.0619,0.0694,0.0732,0.0719,0.0718,0.0706,0.056,0.0447,0.0271,0.011,0.0008,-0.0114,-0.016,-0.0133,-0.0152,-0.0175,-0.0169,-0.0235,-0.0236,-0.0236,-0.0236,-0.0237,0,0.0344,0.0394,0.0499,0.0553,0.0602,0.0693,0.0753,0.0784,0.0818,0.0791,0.0782,0.0666,0.0555,0.0309,0.0126,-0.0103,-0.0126,-0.022,-0.0169,-0.0171,-0.0186,-0.018,-0.0174,-0.0237,-0.0237,-0.0237,-0.0237,0,0.0377,0.0419,0.0488,0.0589,0.0682,0.0768,0.0856,0.0891,0.0927,0.0926,0.0862,0.0715,0.0557,0.033,0.0141,-0.0021,-0.017,-0.0224,-0.0223,-0.0176,-0.0174,-0.0187,-0.0181,-0.0239,-0.0238,-0.0238,-0.0238,0,0.0394,0.0439,0.0523,0.0621,0.0732,0.0819,0.086,0.0919,0.0953,0.0947,0.0917,0.0746,0.0636,0.0371,0.0196,0.0038,0.0014,-0.0043,-0.0052,-0.0053,0.0043,0.0076,0.0069,0,0,0,0,0,0.04,0.0452,0.0541,0.0657,0.0775,0.0831,0.0917,0.0953,0.1003,0.0985,0.0961,0.0822,0.0568,0.0422,0.0276,0.0181,-0.0032,-0.0001,-0.0106,-0.0245,-0.0243,-0.0158,0,0,0,0,0,0,0.0404,0.048,0.0534,0.0677,0.0767,0.0882,0.0943,0.0967,0.0946,0.0967,0.0827,0.0792,0.053,0.0676,0.028,0.0227,0.0137,-0.0113,-0.0116,-0.0246,-0.0244,-0.0243,-0.0155,0,0,0,0,0]}]]